Tracking 19636 objects as of 24-May-2019
HD Live streaming from Space Station
objects crossing your sky now

XY S 1

Track XY S 1 now!
10-day predictions


NORAD ID: 41913
Int'l Code: 2017-002A
Perigee: 530.7 km
Apogee: 548.5 km
Inclination: 97.4 °
Period: 95.3 minutes
Semi major axis: 6910 km
RCS: Unknown
Launch date: January 9, 2017
Source: People's Republic of China (PRC)
Launch site: Jiuquan Satellite Launch Center, China (JSC)
aabbcc
Your satellite tracking list
Your tracking list is empty




NASA's NSSDC Master Catalog

Two Line Element Set (TLE):
1 41913U 17002A   19143.83975451  .00000663  00000-0  43129-4 0  9996
2 41913  97.4439 212.5225 0012891 172.2562 281.2629 15.11233218130518
Source of the keplerian elements: AFSPC